Brady, TX (76825)

2:11 PM CDT on September 01, 2015 (GMT -0500)
Amateur Radio Station K5PW | | Change Station
CLOSE
Current Station
Personal Weather Station
Location: Brady, TX
Elevation: 1860 ft
Nearby Weather Stations

Elev 1860 ft 31.20 °N, 99.37 °W | Updated 21 seconds ago

Clear
Clear
89.7 °F
Feels Like 92 °F
N
9.0
Wind Variable Wind from SSE
Gusts 12.0 mph

Today
High -- | Low -- °F
--% Chance of Precip.
Yesterday
High -- | Low -- °F
Precip. -- in
7:13 AM 8:00 PM
Waning Gibbous, 87% visible
Pressure 30.03 in
Visibility 10.0 miles
Clouds Few 5000 ft
Heat Index 92 °F
Dew Point 66 °F
Humidity 45%
Rainfall 0.00 in
Snow Depth Not available.
UV 10 out of 12
Pollen 8.90 out of 12
Air Quality Not available.
Flu Activity Not available.
METAR KBBD 011855Z AUTO VRB06KT 10SM FEW050 32/17 A3003 RMK
Pressure 30.03 in
Visibility 10.0 miles
Clouds Few 5000 ft
Heat Index 92 °F
Dew Point 66 °F
Humidity 45%
Rainfall 0.00 in
Snow Depth Not available.
UV 10 out of 12
Pollen 8.90 out of 12
Air Quality Not available.
Flu Activity Not available.
METAR KBBD 011855Z AUTO VRB06KT 10SM FEW050 32/17 A3003 RMK

10-Day Weather Forecast

×

Almanac

Astronomy

Sep. 01, 2015 Rise Set
Actual Time
Civil Twilight
Nautical Twilight
Astronomical Twilight
Moon
Length of Visible Light
Length of Day
Tomorrow will be .
, % of the Moon is Illuminated

Today's Extremes

State Highs State Lows

Community

WunderPhotos

Upload Photos

1,851,596 photos uploaded!

WunderBlogs® & News

Nearby

Air Quality

  Air Quality AQ Index Pollutant
Not available.

Snow Depth

Station Depth Elevation

Earthquake Activity

City Distance Mag. Time & Date
Minimum magnitude displayed is 2.5.

Coastal Water Temperatures

Place Temperature

Stations

Nearby Weather Stations

Station Location Temp. Windchill Dew Point Humidity Wind Precip. Elev Updated Type